Location: Unspecified
(38.0989°N, 0.6729°W)
Time: 15:02:22
(UTC+01:00)

ISS - Visible Passes

Search period start: 24 March 2017 00:00
Search period end: 03 April 2017 01:00
Orbit: 399 x 409 km, 51.6° (Epoch: 24 March)

Date Brightness Start Highest point End Pass type
(mag) Time Alt. Az. Time Alt. Az. Time Alt. Az.
24 Mar -3.0 05:13:26 46° SE 05:13:26 46° SE 05:15:51 10° SE visible
25 Mar -1.9 05:57:06 15° SW 05:57:06 15° SW 05:58:30 10° S visible
25 Mar -1.4 20:55:39 10° SSW 20:56:12 14° SSW 20:56:12 14° SSW visible
26 Mar -2.1 21:04:15 10° S 21:06:25 17° SE 21:07:24 15° ESE visible
26 Mar -0.9 22:39:31 10° WSW 22:40:09 15° WSW 22:40:09 15° WSW visible
27 Mar -3.9 21:46:58 10° SW 21:50:13 87° NW 21:51:06 45° NE visible
28 Mar -3.4 20:54:46 10° SSW 20:57:52 43° SE 21:01:00 10° ENE visible
28 Mar -1.5 22:31:50 10° W 22:34:28 22° NNW 22:34:29 22° NNW visible
29 Mar -2.3 21:38:53 10° WSW 21:41:54 35° NNW 21:44:54 10° NE visible
30 Mar -0.9 22:24:39 10° NW 22:26:23 14° NNW 22:27:46 11° N visible
31 Mar -1.2 21:31:16 10° WNW 21:33:41 19° NNW 21:36:08 10° NNE visible
02 Apr -0.9 21:24:09 10° NW 21:25:34 12° NNW 21:26:59 10° N visible
